Location: Waning Moon II Observatory
(30.3730°N, 89.7620°W)
Time: 09:41:05
(UTC-05:00)

Meteor 1-21 - Visible Passes

Search period start: 21 April 2015 00:00
Search period end: 01 May 2015 00:00
Orbit: 845 x 888 km, 81.2° (Epoch: 20 April)

Date Brightness Start Highest point End Pass type
(mag) Time Alt. Az. Time Alt. Az. Time Alt. Az.
21 Apr 6.3 02:44:09 24° NE 02:44:09 24° NE 02:46:34 10° NNE visible
21 Apr 6.0 04:26:30 18° NW 04:26:30 18° NW 04:28:50 10° NNW visible
22 Apr 6.3 02:37:06 22° NE 02:37:06 22° NE 02:39:20 10° NNE visible
22 Apr 6.1 04:19:27 17° NW 04:19:27 17° NW 04:21:33 10° NNW visible
23 Apr 6.4 02:30:01 21° NE 02:30:01 21° NE 02:32:05 10° NNE visible
23 Apr 6.1 04:12:23 16° NW 04:12:23 16° NW 04:14:16 10° NNW visible
24 Apr 6.5 02:22:56 20° NE 02:22:56 20° NE 02:24:50 10° NNE visible
24 Apr 6.2 04:05:17 16° NW 04:05:17 16° NW 04:06:59 10° NNW visible
25 Apr 6.5 02:15:49 20° NNE 02:15:49 20° NNE 02:17:35 10° NNE visible
25 Apr 6.3 03:58:09 15° NW 03:58:09 15° NW 03:59:42 10° NNW visible
26 Apr 6.6 02:08:41 19° NNE 02:08:41 19° NNE 02:10:20 10° NNE visible
26 Apr 6.3 03:51:02 15° NW 03:51:02 15° NW 03:52:25 10° NNW visible
27 Apr 6.6 02:01:33 18° NNE 02:01:33 18° NNE 02:03:05 10° NNE visible
27 Apr 6.4 03:43:53 14° NW 03:43:53 14° NW 03:45:07 10° NNW visible
28 Apr 6.6 01:54:22 18° NNE 01:54:22 18° NNE 01:55:50 10° NNE visible
28 Apr 6.4 03:36:43 14° NW 03:36:43 14° NW 03:37:50 10° NNW visible
29 Apr 6.7 01:47:12 17° NNE 01:47:12 17° NNE 01:48:35 10° NNE visible
29 Apr 6.5 03:29:33 13° NW 03:29:33 13° NW 03:30:33 10° NNW visible
30 Apr 6.7 01:40:00 17° NNE 01:40:00 17° NNE 01:41:20 10° NNE visible
30 Apr 6.5 03:22:21 13° NW 03:22:21 13° NW 03:23:16 10° NNW visible
